Total_Precipitation_Accumulation
0.00 0.00 0.00 0.00 0.00 0.00 0.00 0.00 0.00 0.00 0.01 0.02 0.06 0.11 0.20 0.24 0.32 0.41 0.49 0.46 0.57 0.59 0.77 1.17 1.56 1.81 2.07 1.98 2.01 1.93 1.96 2.16 2.25 2.38 2.50 2.73 2.74 2.72 2.96 3.26 3.42 3.62 3.70 3.53
0.00 0.00 0.00 0.00 0.00 0.00 0.00 0.00 0.01 0.02 0.04 0.04 0.08 0.17 0.29 0.35 0.35 0.46 0.60 0.65 0.85 0.95 0.96 1.18 1.54 1.83 2.03 2.05 2.03 2.09 2.25 2.34 2.45 2.78 3.22 3.62 3.91 4.07 4.15 4.31 4.37 4.29 4.15 4.03
0.00 0.00 0.00 0.00 0.00 0.00 0.00 0.01 0.02 0.04 0.08 0.10 0.15 0.32 0.40 0.39 0.39 0.51 0.68 0.77 0.92 1.06 1.19 1.14 1.20 1.40 1.69 1.91 2.09 2.18 2.47 2.80 3.11 3.58 4.13 4.52 4.89 5.13 5.05 4.86 4.73 4.51 4.31 4.11
0.00 0.00 0.00 0.00 0.00 0.00 0.01 0.00 0.02 0.04 0.08 0.18 0.19 0.40 0.53 0.50 0.56 0.60 0.65 0.68 0.76 0.74 0.86 1.01 1.08 1.20 1.46 1.68 1.96 2.22 2.55 3.06 3.76 4.43 5.01 5.42 5.60 5.61 5.52 5.26 4.88 4.48 4.16 3.85
0.00 0.01 0.01 0.00 0.00 0.00 0.01 0.00 0.01 0.04 0.06 0.15 0.18 0.40 0.65 0.66 0.67 0.73 0.83 0.76 0.69 0.65 0.67 0.79 0.90 1.05 1.26 1.45 1.76 2.14 2.61 3.24 3.87 4.53 5.09 5.52 5.67 5.59 5.34 4.90 4.40 3.90 3.43 3.08
0.01 0.01 0.00 0.00 0.00 0.00 0.00 0.01 0.02 0.06 0.10 0.21 0.19 0.34 0.71 0.90 0.91 0.99 0.97 0.95 0.85 0.76 0.75 0.73 0.74 0.84 1.02 1.28 1.61 1.98 2.40 2.94 3.45 3.86 4.37 4.68 4.85 4.79 4.46 3.99 3.41 2.96 2.64 2.35
0.02 0.01 0.01 0.00 0.00 0.00 0.00 0.02 0.08 0.14 0.18 0.23 0.20 0.39 0.85 1.12 1.09 1.14 1.07 1.03 0.94 0.88 0.81 0.73 0.71 0.73 0.86 1.11 1.44 1.69 1.96 2.32 2.65 3.01 3.38 3.58 3.60 3.45 3.22 2.95 2.62 2.28 1.96 1.68
0.07 0.04 0.01 0.00 0.01 0.01 0.01 0.01 0.11 0.22 0.25 0.29 0.38 0.70 1.10 1.15 1.04 1.03 1.01 0.92 0.86 0.78 0.74 0.78 0.81 0.83 0.91 1.01 1.19 1.39 1.53 1.73 1.87 2.00 2.18 2.22 2.19 2.10 2.06 1.92 1.71 1.48 1.24 1.00
0.12 0.07 0.02 0.01 0.01 0.01 0.01 0.03 0.06 0.09 0.16 0.30 0.62 1.05 1.33 1.24 1.14 1.03 0.92 0.74 0.76 0.70 0.63 0.69 0.74 0.84 0.89 0.91 0.93 0.95 0.97 1.03 1.07 1.09 1.19 1.24 1.23 1.19 1.16 1.08 0.97 0.86 0.77 0.67
0.10 0.08 0.04 0.02 0.01 0.01 0.02 0.03 0.05 0.09 0.26 0.41 0.65 1.04 1.43 1.56 1.48 1.40 1.13 0.83 0.80 0.73 0.64 0.60 0.61 0.65 0.69 0.68 0.66 0.64 0.67 0.68 0.63 0.60 0.61 0.64 0.68 0.66 0.63 0.61 0.59 0.55 0.51 0.46
0.08 0.09 0.07 0.05 0.05 0.05 0.04 0.04 0.05 0.10 0.18 0.37 0.75 1.20 1.36 1.60 1.61 1.49 1.22 0.97 0.93 0.84 0.75 0.69 0.68 0.60 0.58 0.60 0.57 0.54 0.55 0.52 0.49 0.48 0.48 0.44 0.42 0.39 0.36 0.35 0.35 0.32 0.30 0.28
0.08 0.13 0.11 0.09 0.08 0.06 0.06 0.06 0.06 0.14 0.17 0.23 0.63 1.36 1.56 1.71 1.71 1.60 1.55 1.34 1.15 1.00 0.89 0.81 0.74 0.61 0.55 0.53 0.51 0.49 0.48 0.44 0.42 0.38 0.35 0.32 0.29 0.27 0.25 0.24 0.23 0.20 0.20 0.19
0.09 0.21 0.27 0.35 0.29 0.13 0.08 0.07 0.09 0.10 0.15 0.31 0.66 1.35 1.67 1.72 1.65 1.60 1.46 1.35 1.36 1.32 1.16 0.94 0.78 0.62 0.50 0.45 0.46 0.45 0.42 0.40 0.37 0.35 0.34 0.32 0.27 0.23 0.22 0.21 0.19 0.18 0.17 0.17
0.09 0.21 0.37 0.66 0.55 0.24 0.13 0.10 0.11 0.13 0.25 0.43 0.65 1.09 1.38 1.55 1.66 1.72 1.62 1.57 1.52 1.31 0.99 0.75 0.64 0.56 0.51 0.48 0.46 0.42 0.38 0.35 0.33 0.32 0.33 0.36 0.34 0.28 0.24 0.22 0.20 0.16 0.13 0.12
0.11 0.23 0.25 0.27 0.25 0.19 0.16 0.14 0.14 0.17 0.21 0.40 0.66 1.03 1.36 1.50 1.62 1.63 1.67 1.63 1.39 1.14 0.95 0.79 0.69 0.64 0.60 0.53 0.45 0.38 0.35 0.31 0.29 0.31 0.32 0.33 0.33 0.29 0.24 0.21 0.18 0.15 0.11 0.09
0.14 0.26 0.21 0.23 0.22 0.26 0.30 0.25 0.27 0.27 0.34 0.49 0.77 1.13 1.33 1.53 1.62 1.55 1.54 1.48 1.42 1.31 1.16 1.01 0.88 0.79 0.70 0.58 0.49 0.44 0.41 0.37 0.34 0.34 0.34 0.31 0.27 0.24 0.22 0.19 0.16 0.14 0.12 0.11
0.18 0.24 0.29 0.32 0.23 0.35 0.55 0.41 0.34 0.38 0.47 0.64 0.89 1.11 1.10 1.15 1.30 1.41 1.47 1.43 1.42 1.39 1.31 1.19 1.09 0.99 0.87 0.72 0.61 0.55 0.52 0.44 0.40 0.40 0.37 0.34 0.29 0.24 0.19 0.14 0.15 0.15 0.15 0.14
0.17 0.26 0.30 0.34 0.42 0.74 0.72 0.47 0.42 0.47 0.58 0.58 0.68 0.78 0.85 0.89 0.99 1.08 1.16 1.31 1.44 1.42 1.34 1.25 1.12 1.01 0.92 0.78 0.65 0.57 0.49 0.41 0.41 0.42 0.36 0.30 0.28 0.25 0.19 0.16 0.14 0.13 0.15 0.15
0.10 0.23 0.37 0.44 0.63 0.83 0.77 0.50 0.50 0.70 0.82 0.58 0.51 0.53 0.56 0.61 0.73 0.99 1.08 1.22 1.39 1.38 1.31 1.23 1.11 1.00 0.90 0.76 0.63 0.53 0.48 0.43 0.42 0.38 0.30 0.25 0.23 0.21 0.18 0.16 0.14 0.14 0.15 0.15
0.09 0.17 0.38 0.53 0.79 1.04 1.00 0.49 0.33 0.60 1.08 0.73 0.56 0.54 0.62 0.72 0.85 0.90 0.82 0.86 1.05 1.21 1.26 1.21 1.08 0.91 0.78 0.63 0.48 0.43 0.41 0.37 0.33 0.25 0.19 0.18 0.18 0.16 0.14 0.13 0.13 0.13 0.14 0.14
0.27 0.32 0.46 0.61 0.90 1.05 0.60 0.31 0.39 0.84 1.06 0.86 0.73 0.70 0.78 0.95 0.98 0.78 0.69 0.77 0.88 1.00 1.07 0.99 0.87 0.76 0.61 0.46 0.40 0.38 0.32 0.27 0.20 0.16 0.15 0.16 0.16 0.16 0.14 0.15 0.15 0.15 0.15 0.17
0.38 0.53 0.62 0.73 0.99 1.03 0.43 0.30 0.52 0.67 0.60 0.61 0.56 0.53 0.57 0.58 0.57 0.57 0.63 0.74 0.84 0.89 0.87 0.79 0.70 0.59 0.48 0.41 0.39 0.37 0.32 0.23 0.17 0.17 0.17 0.16 0.15 0.09 0.08 0.16 0.18 0.17 0.21 0.22
0.29 0.42 0.58 0.75 0.89 0.72 0.38 0.30 0.32 0.37 0.43 0.42 0.40 0.37 0.41 0.45 0.49 0.49 0.53 0.62 0.70 0.73 0.68 0.60 0.48 0.43 0.40 0.36 0.36 0.34 0.30 0.22 0.21 0.24 0.24 0.19 0.15 0.12 0.11 0.14 0.18 0.20 0.21 0.19
0.33 0.25 0.35 0.57 0.60 0.50 0.38 0.31 0.26 0.24 0.28 0.27 0.27 0.30 0.37 0.44 0.44 0.42 0.42 0.45 0.50 0.51 0.47 0.45 0.41 0.38 0.34 0.30 0.27 0.28 0.23 0.19 0.28 0.31 0.27 0.22 0.20 0.16 0.13 0.13 0.12 0.14 0.15 0.15
0.40 0.46 0.60 0.70 0.60 0.53 0.47 0.37 0.27 0.23 0.20 0.18 0.23 0.27 0.31 0.32 0.32 0.31 0.31 0.32 0.33 0.33 0.32 0.32 0.31 0.29 0.24 0.19 0.17 0.15 0.15 0.17 0.27 0.28 0.23 0.19 0.15 0.13 0.16 0.13 0.06 0.05 0.06 0.04
0.34 0.59 0.97 0.79 0.65 0.66 0.57 0.42 0.33 0.30 0.27 0.26 0.23 0.22 0.24 0.24 0.23 0.22 0.25 0.26 0.25 0.22 0.21 0.22 0.22 0.19 0.15 0.13 0.14 0.11 0.09 0.10 0.18 0.22 0.19 0.14 0.10 0.10 0.11 0.14 0.12 0.04 0.01 0.01